Location: Shenandoah County Park
(38.9356°N, 78.4524°W)
Time: 10:26:05
(UTC-04:00)

Vanguard 1 Rocket - Pass Details

Date: 14 February 2023
Orbit: 652 x 4223 km, 34.3° (Epoch: 24 March)

Event Time Altitude Azimuth Distance (km) Brightness Sun altitude
Rises 16:20:32 0° 277° (W) 5,471 12.3 15.1°
Reaches altitude 10° 16:24:04 10° 268° (W) 4,902 12.4 14.5°
Maximum altitude 16:36:52 33° 212° (SSW) 4,577 12.0 12.3°
Drops below altitude 10° 16:56:17 10° 159° (SSE) 7,316 12.1 8.9°
Sets 17:03:28 0° 151° (SSE) 8,456 12.3 7.7°
